Location: Beccas
(43.4309°N, 0.1528°E)
Time: 00:27:58
(UTC+00:00)

Cosmos 2263 Rocket - Pass Details

Date: 15 October 2021
Orbit: 825 x 847 km, 71.0° (Epoch: 02 December)

Event Time Altitude Azimuth Distance (km) Brightness Sun altitude
Rises 17:36:10 0° 346° (NNW) 3,376 5.4 -4.4°
Reaches altitude 10° 17:39:39 10° 8° (N) 2,437 4.5 -5.1°
Maximum altitude 17:42:59 16° 45° (NE) 2,045 3.8 -5.7°
Drops below altitude 10° 17:46:18 10° 82° (E) 2,428 3.9 -6.3°
Enters shadow 17:47:14 - 89° (E) 2,641 4.1 -6.4°
